EHI
0 0 0 0 0 0 0 0 0 0 0 0 0 0 0 0 0 0 0 0 0 0 0 0 0 0 0 0 0 0 0 0 0 0 0 0 0 0 0 0 0 0 0 0
0 0 0 0 0 0 0 0 0 0 0 0 0 0 0 0 0 0 0 0 0 0 0 0 0 0 0 0 0 0 0 0 0 0 0 0 0 0 0 0 0 0 0 0
0 0 0 0 0 0 0 0 0 0 0 0 0 0 0 0 0 0 0 0 0 0 0 0 0 0 0 0 0 0 0 0 0 0 0 0 0 0 0 0 0 0 0 0
0 0 0 0 0 0 0 0 0 0 0 0 0 0 0 0 0 0 0 0 0 0 0 0 0 0 0 0 0 0 0 0 0 0 0 0 0 0 0 0 0 0 0 0
0 0 0 0 0 0 0 0 0 0 0 0 0 0 0 0 0 0 0 0 0 0 0 0 0 0 0 0 0 0 0 0 0 0 0 0 0 0 0 0 0 0 0 0
0 0 0 0 0 0 0 0 0 0 0 0 0 0 0 0 0 0 0 0 0 0 0 0 0 0 0 0 0 0 0 0 0 0 0 0 0 0 0 0 0 0 0 0
0 0 0 0 0 0 0 0 0 0 0 0 0 0 0 0 0 0 0 0 0 0 0 0 0 0 0 0 0 0 0 0 0 0 0 0 0 0 0 0 0 0 0 0
0 0 0 0 0 0 0 0 0 0 0 0 0 0 0 0 0 0 0 0 0 0 0 0 0 0 0 0 0 0 0 0 0 0 0 0 0 0 0 0 0 0 0 0
0 0 0 0 0 0 0 0 0 0 0 0 0 0 0 0 0 0 0 0 0 0 0 0 0 0 0 0 0 0 0 0 0 0 0 0 0 0 0 0 0 0 0 0
0 0 0 0 0 0 0 0 0 0 0 0 0 0 0 0 0 0 0 0 0 0 0 0 0 0 0 0 0 0 0 0 0 0 0 0 0 0 0 0 0 0 0 0
0 0 0 0 0 0 0 0 0 0 0 0 0 0 0 0 0 0 0 0 0 0 0 0 0 0 0 0 0 0 0 0 0 0 0 0 0 0 0 0 0 0 0 0
0 0 0 0 0 0 0 0 0 0 0 0 0 0 0 0 0 0 0 0 0 0 0 0 0 0 0 0 0 0 0 0 0 0 0 0 0 0 0 0 0 0 0 0
0 0 0 0 0 0 0 0 0 0 0 0 0 0 0 0 0 0 0 0 0 0 0 0 0 0 0 0 0 0 0 0 0 0 0 0 0 0 0 0 0 0 0 0
0 0 0 0 0 0 0 0 0 0 0 0 0 0 0 0 0 0 0 0 0 0 0 0 0 0 0 0 0 0 0 0 0 0 0 0 0 0 0 0 0 0 0 0
0 0 0 0 0 0 0 0 0 0 0 0 0 0 0 0 0 0 0 0 0 0 0 0 0 0 0 0 0 0 0 0 0 0 0 0 0 0 0 0 0 0 0 0
0 0 0 0 0 0 0 0 0 0 0 0 0 0 0 0 0 0 0 0 0 0 0 0 0 0 0 0 0 0 0 0 0 0 0 0 0 0 0 0 0 0 0 0
0 0 0 0 0 0 0 0 0 0 0 0 0 0 0 0 0 0 0 0 0 0 0 0 0 0 0 0 0 0 0 0 0 0 0 0 0 0 0 0 0 0 0 0
0 0 0 0 0 0 0 0 0 0 0 0 0 0 0 0 0 0 0 0 0 0 0 0 0 0 0 0 0 0 0 0 0 0 0 0 0 0 0 0 0 0 0 0
0 0 0 0 0 0 0 0 0 0 0 0 0 0 0 0 0 0 0 0 0 0 0 0 0 0 0 0 0 0 0 0 0 0 0 0 0 0 0 0 0 0 0 0
0 0 0 0 0 0 0 0 0 0 0 0 0 0 0 0 0 0 0 0 0 0 0 0 0 0 0 0 0 0 0 0 0 0 0 0 0 0 0 0 0 0 0 0
0 0 0 0 0 0 0 0 0 0 0 0 0 0 0 0 0 0 0 0 0 0 0 0 0 0 0 0 0 0 0 0 0 0 0 0 0 0 0 0 0 0 0 0
0 0 0 0 0 0 0 0 0 0 0 0 0 0 0 0 0 0 0 0 0 0 0 0 0 0 0 0 0 0 0 0 0 0 0 0 0 0 0 0 0 0 0 0
0 0 0 0 0 0 0 0 0 0 0 0 0 0 0 0 0 0 0 0 0 0 0 0 0 0 0 0 0 0 0 0 0 0 0 0 0 0 0 0 0 0 0 0
0 0 0 0 0 0 0 0 0 0 0 0 0 0 0 0 0 0 0 0 0 0 0 0 0 0 0 0 0 0 0 0 0 0 0 0 0 0 0 0 0 0 0 0
0 0 0 0 0 0 0 0 0 0 0 0 0 0 0 0 0 0 0 0 0 0 0 0 0 0 0 0 0 0 0 0 0 0 0 0 0 0 0 0 0 0 0 0
0 0 0 0 0 0 0 0 0 0 0 0 0 0 0 0 0 0 0 0 0 0 0 0 0 0 0 0 0 0 0 0 0 0 0 0 0 0 0 0 0 0 0 0
0 0 0 0 0 0 0 0 0 0 0 0 0 0 0 0 0 0 0 0 0 0 0 0 0 0 0 0 0 0 0 0 0 0 0 0 0 0 0 0 0 0 0 0
Wind_Speed
5 5 5 6 7 6 2 1 1 1 3 4 5 5 6 6 6 6 7 7 6 6 5 4 4 3 3 2 2 1 1 1 1 1 2 3 3 4 4 4 4 4 5 4
4 3 3 5 7 6 5 4 3 3 4 5 6 6 7 7 6 6 7 7 7 7 6 5 4 3 3 2 2 1 1 1 1 1 2 3 3 4 4 4 4 4 5 5
3 5 3 4 5 4 4 4 3 3 4 6 7 7 7 6 6 7 7 7 7 6 6 5 5 4 3 2 1 1 1 1 2 2 2 3 3 4 4 4 4 4 4 5
3 4 1 2 5 6 4 6 7 6 7 7 6 5 4 5 6 7 8 8 7 6 5 5 5 3 3 1 1 1 1 1 2 2 2 3 3 3 4 3 4 4 4 4
1 1 1 3 7 8 4 3 8 9 9 9 9 4 4 6 8 7 8 7 7 6 6 5 4 3 1 1 1 1 1 1 2 2 3 3 3 3 3 4 4 3 4 4
1 1 2 5 9 10 4 1 9 10 8 8 9 5 5 9 10 9 8 7 7 6 5 5 4 3 1 1 1 1 1 1 1 2 3 3 3 3 3 4 4 4 3 3
2 1 1 6 10 7 3 4 9 8 7 7 6 5 7 9 9 8 7 7 7 6 5 4 4 3 1 1 1 1 1 2 2 2 2 3 3 3 4 4 4 4 4 3
2 2 2 8 7 5 4 6 7 7 6 6 7 7 7 8 8 8 8 7 7 6 5 4 3 3 2 2 2 1 2 2 2 2 2 2 3 3 3 4 5 4 4 3
1 1 3 5 4 4 6 6 6 6 6 7 7 7 8 8 8 7 7 7 7 6 5 4 4 3 2 2 2 2 3 3 2 2 2 2 3 3 3 3 3 3 3 3
1 2 4 6 6 8 7 7 7 7 7 7 7 8 8 8 8 7 7 7 6 5 5 5 5 4 3 2 2 2 3 2 2 2 2 2 2 2 2 3 3 3 3 3
1 2 5 5 8 9 9 9 9 9 8 8 7 8 8 7 7 6 7 6 6 5 5 6 5 5 4 3 3 3 2 2 2 2 2 2 2 2 1 1 2 3 2 3
2 3 4 6 7 8 8 9 9 9 9 9 8 8 8 7 6 6 6 6 6 6 6 6 5 5 4 4 2 2 2 1 1 1 2 2 3 3 5 3 4 3 2 2
2 4 4 5 6 8 7 8 8 8 8 8 8 7 7 7 7 7 7 7 6 6 6 6 6 6 5 4 3 2 1 1 1 1 1 1 2 2 2 3 4 3 3 2
3 4 4 5 6 7 7 7 7 7 7 7 7 7 7 7 7 7 7 7 6 6 6 6 6 6 6 5 4 3 2 2 1 1 1 1 1 2 2 2 1 1 1 2
5 4 4 5 6 7 7 7 8 8 8 8 7 7 8 8 8 8 7 7 6 6 6 6 6 6 6 5 4 3 2 1 1 1 1 1 1 1 2 2 1 1 1 1
5 5 5 5 7 7 7 7 7 8 8 8 8 8 8 7 7 7 7 7 6 6 6 6 6 6 6 5 4 3 2 3 2 1 1 1 1 1 1 1 1 1 1 1
5 5 6 7 7 7 7 6 6 7 7 7 8 8 7 7 7 7 7 7 5 5 6 6 6 6 6 5 4 3 2 2 3 1 1 1 1 1 1 1 1 1 1 2
2 3 4 5 6 6 7 7 6 6 6 7 7 7 7 7 7 8 8 7 6 6 6 6 6 6 5 5 4 3 2 1 1 1 1 0 0 0 1 1 1 1 1 1
3 4 4 5 5 5 5 6 6 6 6 6 7 7 6 6 7 7 7 6 6 7 7 7 9 7 5 6 6 3 2 2 1 1 1 1 1 1 0 1 1 1 2 2
4 4 4 5 5 5 5 6 6 6 6 6 6 6 6 7 7 7 7 6 5 5 6 7 7 5 5 5 6 3 3 2 2 2 1 1 1 1 1 1 2 2 2 2
4 4 5 5 5 5 5 5 5 6 6 6 6 6 7 7 6 6 6 6 6 6 7 9 6 5 5 5 6 3 3 2 2 2 2 1 1 1 1 2 2 2 2 2
4 4 5 5 5 5 5 5 5 5 6 5 6 6 6 7 7 6 5 4 5 9 7 4 4 6 7 7 3 3 3 3 2 2 2 2 2 2 2 2 2 2 2 2
4 4 4 5 5 6 5 5 5 5 5 6 6 6 6 6 5 5 6 5 5 9 7 4 7 10 10 5 3 3 3 3 3 3 2 2 2 2 2 2 2 2 2 2
4 4 4 5 4 5 5 5 5 5 5 5 5 5 5 5 4 4 4 8 10 11 6 7 11 11 10 4 3 3 3 3 3 3 3 3 3 3 2 2 2 2 2 3
4 4 4 4 4 4 5 5 5 5 5 4 5 5 4 3 4 5 5 6 9 10 6 7 11 11 6 3 3 3 3 3 3 3 3 3 3 3 3 2 2 3 3 3
3 3 4 4 4 4 4 4 4 4 5 5 5 4 4 4 5 5 4 5 7 9 6 5 5 6 4 4 4 4 3 4 4 4 3 3 3 3 3 3 3 3 3 3
3 3 3 3 3 3 3 4 4 5 5 5 6 6 5 5 5 5 5 5 5 5 5 4 4 4 4 4 4 4 3 3 3 4 3 3 3 3 3 3 3 3 3 3
Wind_Direction
299 312 342 354 342 353 18 337 302 4 16 8 16 34 28 26 31 33 28 21 18 12 6 3 1 2 2 5 24 35 87 104 123 139 134 140 143 144 145 144 147 144 141 141
292 302 354 11 1 1 355 343 330 1 359 11 21 26 20 18 21 23 17 9 4 360 355 351 350 352 355 355 12 37 70 83 87 110 117 128 135 135 139 140 141 141 144 143
294 317 333 9 5 17 27 20 3 348 346 6 12 17 10 4 11 7 360 354 351 345 338 335 333 335 331 339 358 38 69 83 88 108 123 128 137 137 138 143 141 141 141 139
296 341 19 80 27 14 29 34 25 18 6 2 355 354 3 10 8 357 347 342 338 332 330 329 325 329 335 354 25 58 69 86 97 104 111 117 122 132 135 132 135 138 139 140
305 300 269 44 8 349 339 8 21 10 4 359 349 342 5 14 1 344 335 331 329 325 321 321 321 322 342 28 32 57 70 80 104 115 116 118 122 126 128 126 123 123 130 141
314 323 3 3 335 326 313 347 9 3 360 357 358 351 329 343 341 335 333 333 331 327 328 329 328 335 36 50 39 39 72 85 90 117 124 125 124 122 121 123 123 124 121 131
319 305 40 356 335 349 34 327 339 347 346 347 345 318 311 325 331 332 331 332 332 332 333 333 341 356 22 42 20 3 60 79 79 94 116 125 121 118 122 123 118 117 117 114
356 2 331 352 2 21 333 325 337 342 343 338 331 326 327 332 335 337 339 339 339 338 338 343 350 358 9 11 357 39 74 78 84 87 98 109 118 117 120 126 126 127 124 117
19 25 351 5 17 1 351 341 341 340 339 335 332 332 333 334 337 340 341 340 342 343 346 354 356 3 12 351 9 66 85 81 86 85 83 102 121 126 127 128 135 140 138 132
11 355 357 3 14 5 1 357 350 347 343 342 338 335 334 335 338 342 344 343 344 352 358 355 356 4 9 10 36 70 86 90 96 102 93 85 103 117 129 139 141 142 141 141
322 341 351 356 358 355 358 0 358 355 354 350 345 340 338 338 342 344 343 343 350 358 359 353 356 2 7 18 39 61 74 83 90 101 107 96 81 74 101 106 146 151 156 156
316 340 325 316 337 349 355 356 354 353 352 352 350 342 342 344 348 347 344 346 351 355 355 352 358 0 0 9 30 63 77 85 92 104 106 109 106 74 54 79 86 101 123 148
287 317 316 311 338 350 352 350 351 353 351 351 354 353 352 350 348 348 347 349 350 351 353 357 1 0 359 6 18 36 61 75 88 96 111 120 130 127 105 69 71 85 106 118
346 347 339 343 336 341 347 349 352 353 354 355 355 354 352 351 350 350 349 346 347 353 358 1 3 357 353 2 16 29 37 30 43 106 122 128 130 134 136 135 117 84 84 117
358 355 326 326 339 347 349 351 352 351 351 352 354 353 351 351 349 347 344 344 351 359 358 1 2 353 350 0 9 20 22 16 39 85 100 113 120 118 124 134 142 137 114 119
334 341 347 351 349 347 349 349 346 343 344 345 347 347 345 345 345 346 347 350 356 355 352 355 353 348 350 358 2 9 18 14 13 73 100 104 111 124 137 145 152 162 178 200
346 343 344 341 340 340 340 339 337 335 337 339 338 337 340 344 347 349 349 350 352 349 350 351 348 349 353 359 0 3 14 16 10 25 63 94 120 137 148 152 169 191 213 228
335 324 325 324 327 330 333 336 338 338 336 332 333 337 343 346 343 340 339 340 347 354 355 353 351 352 357 360 359 357 360 4 5 9 19 56 103 139 151 184 209 223 236 239
335 329 329 332 332 330 329 331 332 332 333 335 337 340 340 339 337 336 338 343 348 347 346 351 350 353 355 356 353 354 359 2 3 351 345 19 13 8 306 259 250 247 252 249
332 333 332 331 334 332 329 329 329 330 332 334 334 336 338 336 335 335 338 340 339 331 332 339 343 348 353 352 348 348 355 355 351 338 339 345 312 287 275 268 261 254 254 256
327 329 328 326 325 326 325 325 326 325 326 331 332 330 329 328 331 333 333 331 334 339 341 342 344 344 345 342 340 344 348 346 342 336 326 315 299 287 278 275 273 270 264 262
318 319 319 319 320 320 322 323 322 319 323 327 327 327 327 327 329 328 323 314 323 333 338 335 336 337 337 337 339 338 337 333 327 323 318 308 296 286 279 274 270 272 271 268
314 315 316 317 315 312 316 319 317 317 317 319 320 320 318 315 317 318 318 325 330 331 332 326 328 331 333 337 337 333 330 323 316 311 306 300 294 285 279 278 278 276 269 267
310 312 311 312 314 315 315 315 314 312 308 305 306 309 312 313 312 309 303 316 324 326 326 324 329 331 333 335 330 325 319 315 313 310 305 299 295 290 284 282 284 283 272 265
307 304 306 311 312 308 309 314 315 313 312 310 311 312 310 304 302 307 311 314 319 323 321 324 328 330 331 325 320 314 311 306 305 306 302 301 296 293 289 284 280 279 277 270
300 298 295 291 292 300 307 311 312 314 316 315 315 316 315 311 306 307 310 313 315 317 319 316 318 321 320 317 314 311 309 310 313 311 307 302 298 296 292 289 284 280 279 275
302 301 302 303 306 310 312 311 309 310 312 309 309 310 312 311 311 312 312 312 312 313 312 312 312 312 312 313 311 310 307 305 303 301 301 299 297 294 293 289 284 282 280 278